Regional Weather Roundup
Issued by NWS New Orleans/Baton Rouge, LA

Home | Current Version | Previous Version | Graphics & Text | Print | Product List | Glossary On
Versions: 1 2 3 4 5 6 7 8 9 10 11 12 13 14 15 16 17 18 19 20 21 22 23 24 25 26 27 28 29 30 31 32 33 34 35 36 37 38 39 40 41 42 43 44 45 46 47 48 49 50
051
ASUS44 KLIX 221101
RWRLIX
NEW ORLEANS REGIONAL WEATHER ROUNDUP
NATIONAL WEATHER SERVICE NEW ORLEANS LA
600 AM CDT FRI AUG 22 2014

NOTE: "FAIR" INDICATES FEW OR NO CLOUDS BELOW 12,000 FEET WITH NO
      SIGNIFICANT WEATHER AND/OR OBSTRUCTIONS TO VISIBILITY.
      SKY/WX - SKY CONDITION AND SIGNIFICANT WEATHER.
      TMP - AIR TEMPERATURE.     DP    - DEWPOINT TEMPERATURE.
      RH  - RELATIVE HUMIDITY.   PRES  - PRESSURE.
      HI  - HEAT INDEX.          WCI   - WIND CHILL INDEX.

*  THESE STATIONS ARE NOT NWS OR FAA STATIONS AND ARE NOT UNDER
   NWS QUALITY CONTROL.

LAZ038-040-048-061>063-065>067-069-221200-
SOUTHEAST LOUISIANA

CITY           SKY/WX    TMP DP  RH WIND       PRES   REMARKS
N.O. AUDUBON   NOT AVBL
N.O. INTL ARPT MOCLDY    76  73  91 W3        30.10R
N.O. LAKEFRONT CLEAR     82  76  81 NW5       30.09S
N.O. DOWNTOWN*   N/A     81  70  69 CALM      30.10S
SLIDELL        PTCLDY    74  71  91 CALM      30.09R
BATON ROUGE    PTCLDY    74  72  93 CALM      30.10R
BOOTHVILLE     PTCLDY    82  79  90 NW5       30.09R
BELLE CHASSE   PTCLDY    74  70  87 CALM      30.09R
BOGALUSA*        N/A     74  70  88 CALM      30.11S
GALLIANO*      NOT AVBL
NEW ROADS*       N/A     71  71  98 CALM      30.10S FOG
GONZALES*        N/A     73  73 100 CALM      30.10R
HAMMOND*       NOT AVBL
HOUMA*         CLEAR     73  71  91 CALM      30.10R
PORT FOURCHON* PTSUNNY   84  77  79 CALM      30.10S

$$

MSZ070-080>082-221200-
SOUTHERN MISSISSIPPI

CITY           SKY/WX    TMP DP  RH WIND       PRES   REMARKS
MCCOMB         PTCLDY    73  71  93 CALM      30.11S
GULFPORT       PTCLDY    77  74  90 NW3       30.08R
BILOXI         PTCLDY    79  73  83 VRB1      30.09R
PASCAGOULA     CLEAR     73  73 100 CALM      30.08S

$$

COASTAL OBSERVATIONS
LAKE AND NEARSHORE STATIONS

STATION/POSITION TIME  TEMP    WIND        PRES    WAVE
                       AIR SEA DIR/SP/G            HT/PER
                 (UTC) (F)     (DEG/KT/KT) (MB)    (FT/S)
PASCAGOULA       1000   80     330/  4/  6 1017.9
WAVELAND YACHT   1000   78     320/  5/  7 1018.0
GRAND ISLE       1000   85 88  290/  6/  8 1019.2
SOUTHWEST PASS   1000   84 88  310/  5/  6 1018.8
NEW CANAL        1000   83 84  310/  1/  3 1019.3
SHELL BEACH      1000   82 82  290/  7/  8 1018.7

OFFSHORE STATIONS

STATION/POSITION TIME  TEMP    WIND        PRES    WAVE
                       AIR SEA DIR/SP/G            HT/PER
                 (UTC) (F)     (DEG/KT/KT) (MB)    (FT/S)
64 S DAUPHIN ISL 1045   85 88  310/  8/ 10 1018.8

$$




USA.gov is the U.S. government's official web portal to all federal, state and local government web resources and services.